STARLINK-5217, 54098

Orbit data source: Space-Track

STARLINK-5217, 54098 is a payload satellite owned by SpaceX/Seattle (US) in LEO that was launched on Thu, 20 Oct 2022 UTC via an FALCON 9 launch vehicle from the Air Force Eastern Test Range (AFETR). Payload-class satellites include a variety of spacecraft equipped with specific instruments for various scientific and technological missions. These include communications satellites like Starlink; space stations such as the ISS; scientific satellites like the Hubble; Earth observation satellites from companies like Planet Labs, Umbra, and HawkEye 360; GPS; miniature CubeSats for education and research; and military/defense satellites.

Loading next visibility...
Identifier
54098, 2022-136AZ
Orbit
LEO
Country
Flag of USUS
Related business
Manufacturer
SpaceX/Seattle
Mission
Operational Commercial Communications
Bus & Motor
STARLINK, Unknown motor
Mass
305 kg wet, ~290 kg dry
Launch date (UTC)
2022-10-20 (3 years ago)
Launch vehicle
FALCON 9
Launch site
Air Force Eastern Test Range (AFETR)
Object type
Payload
Rocket body
Debris
Shape & HBR
Box + 1 Pan, 10.1 m
Radar Cross Section
13.562 m², Large (>1 m²)

Expand to show TLE details & history
Last TLE update: 13 hours ago

TLE from 13 hours ago
0 STARLINK-5217
1 54098U 22136AZ  25304.02176544  .00000811  00000-0  69013-4 0  9996
2 54098  53.2167 196.5596 0001317  86.0078 274.1064 15.08842218167405
Epoch: 2025-10-31T00:31Z
TLE epoch observation values (Epoch: 2025-10-31T00:31:20.534Z)
Latitude
-0.0001°
Longitude
149.15179°
Altitude
540.569 km
Speed
7.593 km/s
True Right ascension
13h 06m 14s
True Declination
0° 00' 00"
Sunlit
Object was in daylight at epoch
Visualization orbit readout
Latitude
Unknown
Longitude
Unknown
Altitude
Unknown
Speed
Unknown
Apparent Right ascension
Unknown
Apparent Declination
Unknown
Sunlit
N/A
Visualization observer readout
Local Sidereal Time
08:46:55
Azimuth
Unknown
Elevation
Unknown
Doppler factor
Unknown
Orbital elements
Apogee altitude
540.893 km
Perigee altitude
539.071 km
Semi-major axis
6,918.119 km
Eccentricity
0.00013
Inclination
53.2167°
RAAN
196.5596°
Arg. of periapsis
86.0078°
True anomaly
274.09135°
Mean anomaly
274.1064°
Eccentric anomaly
274.09887°
Mean motion
3.77191 °/min
Orbital period
95.44 mins
BSTAR
0.000069013
Loading maneuver chart data...
Computing Atmospheric mass density...
Loading historical data...
Loading historical data...
Loading historical data...
Loading historical data...
Loading historical data...
Loading historical data...
Loading historical data...

Documentation

Showing up to 5 results
|